Content
SEND FEEDBACK

Daily
Averages
Monthly
Summary
United States of America

HERMOSA, SOUTH DAKOTA


Home > North America > United States > South Dakota
Elevation: 3300 feet     Latitude: 43 50N     Longitude: 103 11W

WEATHER
 
SELECT A DAY
Number of Records: 203,292;   Date Range: 1/1/95 - 10/21/14
 
SHARE

PRINT THIS DATA

[ ← Previous Day ]
WEATHER ALMANAC - FEBRUARY 28, 2013
[ Next Day → ]
[ °C ]   °F
Weather ElementAverageHighLow
Temperature28.7 °F41 °F (12:52 pm)12.9 °F (5:52 am)
Dewpoint21.2 °F30 °F (2:52 pm)10.9 °F (6:52 am)
Humidity75.4 %96 % (5:52 am)45 % (12:52 pm)
Barometer30.27 in30.34 in (6:52 am)30.13 in (2:43 pm)
Wind Speed5.1 mph19.6 mph (2:37 pm)
Wind Gust28.8 mph (2:37 pm)
Weather ElementAverage
Visibility8.5 mi
Wind DirectionESE (120 °)

Weather ElementTotal
Precipitation---
Heating Degree Days38.1 (Base 65)
Averaged from 26 records on February 28, 2013
WEATHER CONDITIONS BREAKOUT
WIND DIRECTION BREAKOUT
WEATHER BY HOUR - FEBRUARY 28, 2013
[ °C ]   °F
Local TimeTemperatureDewpointHumidityBarometerVisibilityWind DirectionWind SpeedGust SpeedPrecipitationEventsConditions
1:52 AM18.0 °F14.0 °F84 %30.29 in10.0 miCalmClear
2:52 AM16.0 °F14.0 °F92 %30.27 in10.0 miCalmClear
3:52 AM15.1 °F14.0 °F95 %30.30 in10.0 miEast (100°)3.5 mphClear
4:52 AM17.1 °F14.0 °F88 %30.30 in7.0 miCalmClear
5:52 AM12.9 °F12.0 °F96 %30.32 in5.0 miCalmPartly Cloudy
6:52 AM14.0 °F10.9 °F88 %30.34 in4.0 miCalmMostly Cloudy
7:52 AM21.0 °F19.0 °F92 %30.33 in8.0 miCalmClear
8:52 AM25.0 °F21.9 °F88 %30.33 in8.0 miSSE (150°)5.8 mphPartly Cloudy
9:22 AM26.6 °F21.2 °F80 %30.20 in10.0 miVariable5.8 mphPartly Cloudy
9:52 AM28.9 °F23.0 °F78 %30.33 in10.0 miVariable4.6 mphClear
10:52 AM34.0 °F21.9 °F61 %30.30 in10.0 miVariable5.8 mphClear
11:52 AM39.0 °F21.0 °F49 %30.27 in10.0 miNNE (20°)4.6 mphClear
12:52 PM41.0 °F21.0 °F45 %30.25 in10.0 miCalmPartly Cloudy
1:52 PM39.0 °F21.0 °F49 %30.24 in8.0 miNorth (350°)10.4 mph20.7 mph0.00 in
2:37 PM35.6 °F26.6 °F70 %30.14 in1.5 miNNW (340°)19.6 mph28.8 mph0.00 inSnowLight Snow
2:43 PM33.8 °F28.4 °F81 %30.13 in2.0 miNE (50°)8.1 mph28.8 mph0.00 inSnowLight Snow
2:52 PM35.1 °F30.0 °F82 %30.25 in7.0 miEast (80°)4.6 mph0.00 inSnowLight Snow
3:52 PM37.9 °F27.0 °F65 %30.25 in10.0 miNNE (20°)3.5 mph0.00 inScattered Clouds
4:52 PM37.0 °F26.1 °F65 %30.25 in10.0 miSouth (170°)4.6 mphMostly Cloudy
5:52 PM35.1 °F28.0 °F76 %30.27 in10.0 miSSW (210°)5.8 mphOvercast
6:52 PM35.1 °F25.0 °F67 %30.30 in10.0 miNNE (30°)9.2 mphOvercast
7:52 PM33.1 °F25.0 °F72 %30.29 in10.0 miNNW (330°)6.9 mphOvercast
8:52 PM33.1 °F24.1 °F70 %30.29 in10.0 miNW (320°)5.8 mph0.00 inOvercast
9:52 PM30.9 °F23.0 °F72 %30.28 in10.0 miWNW (300°)6.9 mphMostly Cloudy
10:52 PM28.9 °F21.9 °F75 %30.29 in10.0 miNW (320°)8.1 mphMostly Cloudy
11:52 PM23.0 °F18.0 °F81 %30.29 in10.0 miNNW (330°)8.1 mphClear
Hourly data recorded from KRAP, located miles away from Hermosa, South Dakota







STORIES FROM OUR PARTNERS